Simultaneous Nadir Overpasses (SNOs) Predictions

Prediction of SNOs over PacNW region [( 10.00, 139.50) to ( 22.70, 165.60)] between AQUA and NPP Satellites:

Table of predicted SNOs over PacNW region for the next 30.0 days since TLE Epoch: 6/19/2020
Index Date (AQUA) Time (AQUA) AQUA Lat,Lon Date (NPP) Time (NPP) NPP Lat,Lon Distance(km) Time Diff (sec)
1 06/25/2020 15:59:25 22.61, 147.49 06/25/2020 16:01:16 23.26, 144.67 297.90 111
2 07/03/2020 15:09:56 22.64, 159.87 07/03/2020 15:10:29 23.19, 157.36 264.00 33
3 07/11/2020 15:59:21 22.63, 147.51 07/11/2020 16:01:10 23.27, 144.72 295.46 109




NCC Satellite Simultaneous Nadir Overpasses (SNOs) Prediction Service
